SCP
0 0 0 -0 -0 0 -0 0 0 0 0 0 0 0 -0 -0 0 0 0 0 0 0 0 0 0 0 0 0 0 -0 0 0 0 0 0 0 0 0 0 0 0 0 0 0
0 0 0 -0 -0 -0 -0 0 0 0 0 0 0 0 0 0 0 0 0 0 0 0 0 0 0 0 0 0 0 0 0 0 -0 -0 0 0 0 0 -0 0 0 0 0 0
0 0 0 -0 -0 -0 -0 0 0 0 0 0 0 0 -0 -0 0 0 0 0 0 0 0 0 0 0 0 0 0 0 0 0 0 0 0 0 0 0 0 0 0 0 0 0
0 0 0 0 0 0 0 0 0 0 0 -0 0 0 0 0 0 0 0 0 0 0 0 0 0 0 -0 0 0 0 0 0 0 -0 -0 -0 -0 0 0 -0 0 0 0 0
0 0 0 0 -0 0 0 0 0 0 0 0 0 0 0 0 0 0 0 0 0 0 0 0 0 -0 0 0 0 0 0 0 0 0 0 0 -0 -0 -0 0 0 -0 0 0
0 0 0 0 0 0 0 0 0 0 0 0 0 0 0 0 0 0 0 0 0 0 0 -0 0 0 0 0 0 0 0 0 0 0 0 0 -0 0 0 0 0 0 0 0
0 0 0 0 0 0 0 0 0 0 0 0 0 0 0 0 0 0 0 0 0 0 0 -0 0 0 0 0 0 0 0 0 0 0 0 0 0 0 0 0 -0 -0 0 0
0 0 0 0 0 0 0 0 0 0 0 0 0 0 0 0 0 0 0 0 0 0 0 0 0 0 0 0 -0 0 0 0 0 0 -0 -0 0 0 -0 -0 0 0 0 0
0 0 0 0 0 0 0 0 0 0 0 0 0 0 0 0 0 0 0 0 0 0 0 0 0 0 0 0 0 0 0 0 0 0 0 0 0 0 -0 -0 0 0 -0 -0
0 0 0 0 0 0 0 0 0 0 0 0 0 0 0 0 0 0 0 0 0 0 0 0 0 0 0 0 0 0 0 0 0 0 0 0 0 -0 -0 0 0 -0 0 0
0 0 0 0 0 0 0 0 0 0 0 0 0 0 0 0 0 0 0 0 0 0 0 0 0 0 0 0 0 0 0 0 0 0 0 0 0 -0 -0 0 0 0 0 0
0 0 0 0 0 0 0 0 0 0 0 0 0 0 0 0 0 0 0 0 0 0 0 0 0 0 0 -0 0 0 0 0 0 0 0 0 0 0 0 0 0 0 0 0
0 0 0 0 0 0 0 0 0 0 0 0 0 0 0 0 0 0 0 0 0 0 0 0 0 0 0 0 0 0 0 0 0 0 0 0 0 0 0 0 -0 -0 -0 0
0 0 0 0 0 0 0 0 0 0 0 0 0 0 0 0 0 0 0 0 0 0 0 0 0 0 0 0 0 -0 0 0 0 0 0 -0 0 0 0 -0 0 0 0 0
0 0 0 0 0 0 0 0 0 0 0 0 -0 -0 0 0 0 0 0 0 0 0 0 0 0 0 0 0 0 0 0 0 0 0 0 0 0 0 0 0 -0 -0 0 0
0 0 0 0 0 0 0 0 0 0 0 0 0 -0 -0 0 0 0 0 0 0 0 0 0 0 0 0 -0 0 0 0 0 0 0 0 0 0 0 0 0 0 0 0 0
0 0 0 0 0 0 0 0 0 0 0 0 0 -0 -0 0 0 0 0 0 0 0 0 0 0 0 0 0 0 0 0 -0 -0 0 0 0 0 0 0 0 0 0 0 0
0 0 0 0 0 0 0 0 0 0 0 0 0 -0 0 0 0 0 0 0 0 0 0 0 0 -0 -0 0 0 -0 0 -0 0 0 0 0 0 0 0 0 0 0 0 0
0 0 0 0 0 0 0 0 0 0 0 0 0 0 0 -0 0 0 0 0 0 0 0 0 0 0 0 0 0 0 -0 -0 -0 -0 0 0 0 0 0 0 0 0 0 0
0 0 0 0 0 0 0 0 0 0 0 0 0 0 0 0 0 0 0 0 0 0 0 0 0 0 0 0 0 0 -0 -0 -0 -0 -0 -0 0 0 -0 -0 0 0 0 0
0 0 0 0 0 0 0 0 0 0 0 0 -0 -0 -0 0 0 0 0 0 0 0 0 0 0 0 0 0 -0 0 -0 -0 -0 -0 -0 -0 0 0 -0 0 0 0 0 -0
0 0 0 0 0 0 0 0 0 0 0 0 0 0 -0 0 0 0 -0 0 0 0 0 0 0 0 0 0 0 0 -0 -0 -0 -0 -0 -0 -0 0 -0 -0 0 0 -0 -0
0 0 0 0 0 0 0 0 0 -0 -0 0 -0 -0 0 0 0 0 0 0 0 0 0 0 0 0 0 0 0 0 0 -0 -0 -0 -0 -0 0 0 -0 0 0 0 -0 -0
0 0 0 0 0 0 0 0 0 0 0 0 0 0 0 0 0 0 0 0 0 0 0 0 0 0 0 0 0 -0 -0 -0 -0 0 0 -0 -0 0 -0 -0 -0 0 0 0
0 0 0 0 0 0 0 0 0 -0 0 -0 0 0 0 0 0 0 0 0 0 0 0 0 0 0 0 0 -0 -0 -0 -0 -0 -0 -0 -0 0 0 0 -0 -0 0 0 0
0 0 0 0 0 -0 -0 0 -0 -0 -0 0 0 0 0 0 0 0 0 0 0 0 0 0 0 0 0 0 0 -0 -0 -0 0 -0 -0 -0 0 -0 -0 0 -0 0 0 -0
0 0 0 0 0 -0 0 0 0 0 0 0 0 0 0 0 0 0 0 0 0 0 0 0 0 0 0 0 0 -0 -0 -0 -0 0 0 -0 -0 -0 -0 -0 -0 -0 -0 0
Wind_Speed_500mb
36 46 59 69 70 79 71 31 7 11 5 6 9 6 18 45 38 33 15 10 13 14 21 15 22 26 24 14 7 5 1 7 3 22 29 12 7 10 7 7 14 4 8 14
41 45 57 68 61 75 79 56 16 5 12 5 13 16 21 33 24 20 5 6 11 18 18 11 13 13 8 9 1 5 12 2 6 11 1 5 6 10 14 12 4 6 2 8
44 44 56 61 61 56 66 18 7 15 22 24 15 18 20 27 40 30 20 12 19 20 13 15 13 20 11 10 6 13 6 6 10 9 15 8 6 18 18 10 7 11 20 25
45 46 50 55 62 39 55 8 8 25 9 21 29 28 19 26 27 19 31 13 22 24 11 14 14 19 18 9 22 7 3 6 11 19 26 27 30 35 23 25 28 13 26 23
45 48 47 52 57 39 32 17 15 24 32 28 27 18 15 28 20 17 14 11 16 13 13 14 10 14 12 5 14 12 2 5 11 13 24 23 30 36 29 33 36 22 27 21
44 45 43 42 46 42 25 31 26 16 14 18 17 15 35 38 17 7 23 22 13 12 20 26 27 26 28 18 10 11 6 4 9 8 19 28 15 19 15 17 13 11 5 19
40 41 40 39 43 51 34 19 17 10 9 7 19 31 41 32 33 23 27 26 11 13 25 37 32 45 38 30 20 22 6 5 5 10 14 5 12 23 18 12 13 2 17 21
40 38 40 41 49 47 27 13 7 5 8 16 24 24 32 42 43 25 33 25 5 25 19 6 10 5 3 6 12 7 5 0 4 3 5 19 8 17 19 15 10 21 25 29
43 36 38 43 53 32 22 20 19 12 10 9 20 25 25 13 13 13 9 8 3 6 5 4 4 5 9 6 1 9 5 4 7 7 7 6 10 29 41 27 10 27 44 28
44 36 35 41 35 25 24 23 22 13 11 30 13 7 18 25 16 9 11 26 5 10 4 2 5 6 10 3 4 2 1 3 7 7 7 10 23 30 35 11 12 50 51 47
42 38 32 28 26 25 28 21 17 18 13 43 38 21 23 24 24 6 29 18 5 9 3 5 7 5 7 8 5 7 7 3 6 2 5 8 34 13 6 13 40 48 53 61
39 34 24 19 23 24 26 24 14 20 29 42 49 50 63 68 49 27 11 15 10 13 5 7 7 5 7 8 5 6 4 3 4 1 7 8 29 19 25 49 48 57 66 73
30 31 22 17 20 23 24 28 22 27 27 39 21 19 21 17 29 25 8 4 11 7 11 6 4 5 4 2 6 5 7 2 4 11 7 23 50 23 54 58 64 74 78 84
24 30 20 17 19 23 22 29 25 18 12 10 15 8 6 10 14 22 27 16 9 13 16 6 4 5 8 5 8 4 6 11 9 10 9 49 14 48 63 81 72 79 79 58
21 27 18 18 20 20 27 33 32 23 14 8 26 36 26 25 30 21 16 14 10 8 7 5 5 10 7 8 3 5 6 2 1 7 27 24 46 58 78 69 73 83 74 80
19 23 16 20 22 18 19 10 8 11 21 9 7 19 26 27 30 22 25 23 14 10 7 8 11 5 3 3 3 8 15 5 15 16 42 47 54 60 63 73 79 93 60 80
17 24 17 24 21 21 21 8 5 12 16 8 10 10 13 31 31 28 26 20 12 8 6 8 16 1 7 1 4 15 17 25 29 20 31 31 39 63 78 70 82 60 66 98
17 20 18 24 20 25 32 26 24 26 17 8 5 8 12 28 21 17 27 16 17 15 9 7 4 4 6 5 5 15 21 27 12 34 34 41 52 64 71 74 82 68 77 84
24 19 20 13 15 13 19 20 15 34 11 6 7 5 5 9 32 13 17 22 7 12 6 4 7 4 4 6 7 11 21 19 31 39 40 41 55 64 72 72 81 70 72 97
30 26 11 8 9 10 11 6 9 12 9 11 8 10 7 12 2 19 14 17 8 6 3 5 2 2 11 10 3 15 20 22 29 36 46 57 59 63 69 73 81 70 68 103
37 17 11 12 7 18 8 10 12 13 8 14 16 30 15 15 5 5 9 1 5 6 4 4 3 3 10 12 7 13 18 20 27 30 36 42 44 56 64 70 77 71 81 89
30 18 17 12 11 9 7 7 9 9 7 13 11 24 31 12 5 5 8 2 3 2 16 5 4 6 19 9 8 14 19 25 29 35 41 44 42 46 58 62 70 71 73 91
30 9 10 9 9 9 10 11 7 6 10 17 18 7 20 9 9 5 4 5 1 28 6 5 3 20 19 13 10 14 19 24 27 33 38 48 43 43 48 64 65 69 66 83
10 14 9 9 9 10 9 8 6 8 22 20 28 13 6 4 4 5 4 5 3 5 5 5 5 18 15 14 13 18 24 27 28 33 40 50 49 47 46 57 58 66 63 78
11 11 9 14 20 8 10 18 15 24 20 30 20 9 11 3 3 3 4 5 4 7 4 5 21 15 10 10 12 17 21 25 28 31 36 45 47 53 54 47 53 59 71 67
7 10 9 14 5 12 14 16 30 29 29 5 6 3 2 5 5 2 6 4 4 3 2 23 22 14 12 11 13 15 21 23 26 30 34 38 48 51 63 55 47 53 62 65
9 12 25 22 11 14 21 24 24 15 11 3 5 6 10 7 5 4 3 4 5 15 28 22 13 11 9 11 13 15 18 24 26 28 30 34 36 43 52 65 62 50 56 62
Wind_Direction_500mb
314 314 334 336 341 344 347 353 312 243 239 241 220 242 296 355 333 342 360 347 322 340 346 325 326 312 316 112 189 184 203 140 226 276 296 127 272 87 62 235 283 173 136 247
313 323 335 339 336 346 341 330 276 272 255 281 316 328 342 328 332 343 308 302 325 342 310 293 287 335 317 79 306 48 178 277 341 301 138 94 160 186 192 198 50 279 190 288
310 322 331 344 332 330 335 317 306 354 316 337 11 338 326 324 318 297 17 13 355 306 302 341 311 306 349 87 18 142 159 221 229 234 275 199 298 262 280 187 207 215 229 259
309 312 325 341 347 333 339 285 322 17 331 338 322 314 306 292 309 24 25 358 324 317 332 329 313 336 338 337 156 188 57 275 320 307 301 300 296 293 263 255 250 238 266 247
307 309 316 331 347 340 352 1 355 336 302 314 319 301 314 339 338 11 335 302 308 341 306 294 336 2 357 316 350 347 107 284 308 296 289 287 302 282 279 263 312 349 342 331
304 307 311 326 348 347 336 311 324 338 292 311 332 327 332 323 343 350 319 330 345 332 301 352 333 310 293 278 286 297 320 346 344 272 331 317 299 26 19 347 116 246 17 321
300 301 308 318 333 341 326 312 319 297 279 311 304 312 301 328 325 310 298 296 274 335 327 315 294 265 246 241 245 236 253 309 313 285 316 297 110 69 35 320 284 282 348 356
296 298 302 309 323 328 314 287 249 275 279 300 299 328 317 318 305 292 289 242 58 323 318 279 294 290 142 322 295 165 130 124 315 253 317 274 40 15 353 334 330 35 356 333
291 290 296 304 316 323 302 290 241 230 302 251 337 332 313 321 327 317 343 136 272 345 251 339 288 280 164 235 272 93 277 140 134 348 312 269 25 354 339 301 254 0 347 327
288 288 286 301 301 309 304 306 255 250 256 280 325 262 275 298 325 289 343 339 315 232 299 308 236 260 315 137 189 176 104 119 195 219 234 281 11 354 339 51 294 339 336 330
283 287 292 300 278 295 309 312 258 246 250 279 282 256 286 322 299 305 322 330 3 341 317 325 350 347 348 28 345 175 177 189 216 197 240 289 10 11 44 296 324 323 322 316
279 284 288 288 266 288 304 312 249 234 247 268 286 264 266 266 255 297 301 308 359 17 9 9 345 339 347 349 302 63 100 89 246 82 238 34 358 327 333 337 327 321 314 312
279 272 278 271 255 279 293 306 305 272 280 300 296 302 345 226 220 215 241 81 5 19 1 319 301 281 296 306 283 51 135 10 70 358 324 1 328 328 332 331 322 319 313 309
271 264 275 258 243 271 280 299 306 267 275 277 287 314 218 271 213 221 224 248 314 317 317 306 275 260 261 282 289 358 353 26 335 261 297 342 293 325 321 325 326 317 316 308
264 260 267 253 240 268 273 304 297 272 234 295 295 294 260 257 213 207 213 220 245 299 303 252 247 263 339 316 293 53 15 135 253 258 317 294 290 305 319 316 318 319 317 323
257 250 268 241 237 256 276 305 338 209 192 288 293 283 281 194 199 189 205 213 225 223 295 272 255 254 330 341 346 152 74 6 331 294 305 302 301 304 313 317 321 321 324 333
245 236 255 223 236 242 234 249 284 218 195 260 287 279 282 209 191 202 203 207 197 230 246 250 269 110 108 167 252 42 6 331 324 325 328 318 321 313 320 320 328 330 333 333
230 224 241 215 237 243 244 277 271 212 208 244 273 273 272 202 192 186 204 178 202 211 235 246 252 20 234 219 54 15 353 341 344 328 327 308 311 319 326 330 337 340 340 339
198 208 203 208 221 238 262 281 216 194 216 252 245 266 288 223 215 196 179 198 194 199 218 202 137 220 219 90 59 348 2 355 325 330 330 336 333 328 331 336 342 344 348 346
189 189 174 207 216 215 161 137 161 188 235 236 255 266 268 269 333 201 197 180 187 180 135 112 120 272 168 136 82 2 353 339 334 335 341 341 333 330 333 341 340 345 351 348
177 173 182 191 148 156 203 204 197 191 230 219 234 221 237 289 294 329 354 207 170 189 163 208 217 133 126 99 80 10 342 335 344 347 339 331 333 331 336 339 343 346 350 353
179 157 162 159 186 207 235 209 192 202 235 203 221 213 200 247 333 19 323 251 261 194 144 191 175 149 115 81 13 344 340 338 339 347 340 345 342 341 342 340 346 352 352 354
145 167 159 177 178 224 225 208 191 218 222 205 204 202 183 161 212 217 241 254 26 132 194 154 105 104 79 62 24 340 343 343 343 344 346 351 348 352 350 348 351 354 356 358
155 166 188 216 191 232 211 216 234 286 274 202 188 213 169 137 202 214 264 272 264 243 148 87 87 83 72 54 16 350 346 347 348 347 350 355 354 351 354 354 356 1 358 2
174 192 218 213 236 242 248 229 262 256 251 266 178 192 148 156 139 237 12 279 248 53 101 138 119 97 73 40 10 348 346 347 348 348 351 356 4 4 359 4 6 11 5 1
202 222 245 256 270 239 237 262 263 265 267 196 249 101 186 153 142 145 233 289 33 109 200 109 105 83 62 30 11 354 344 348 345 349 349 349 2 7 9 13 15 16 4 7
216 230 233 255 262 248 234 253 237 223 234 213 216 212 182 102 133 201 95 176 155 203 115 106 96 83 37 26 11 4 355 354 356 352 356 359 355 355 6 12 14 18 16 15
Wind_Speed_850mb
36 46 59 69 70 79 71 31 7 11 5 6 9 6 18 45 38 33 15 10 13 14 21 15 22 26 24 14 7 5 1 7 3 22 29 12 7 10 7 7 14 4 8 14
41 45 57 68 61 75 79 56 16 5 12 5 13 16 21 33 24 20 5 6 11 18 18 11 13 13 8 9 1 5 12 2 6 11 1 5 6 10 14 12 4 6 2 8
44 44 56 61 61 56 66 18 7 15 22 24 15 18 20 27 40 30 20 12 19 20 13 15 13 20 11 10 6 13 6 6 10 9 15 8 6 18 18 10 7 11 20 25
45 46 50 55 62 39 55 8 8 25 9 21 29 28 19 26 27 19 31 13 22 24 11 14 14 19 18 9 22 7 3 6 11 19 26 27 30 35 23 25 28 13 26 23
45 48 47 52 57 39 32 17 15 24 32 28 27 18 15 28 20 17 14 11 16 13 13 14 10 14 12 5 14 12 2 5 11 13 24 23 30 36 29 33 36 22 27 21
44 45 43 42 46 42 25 31 26 16 14 18 17 15 35 38 17 7 23 22 13 12 20 26 27 26 28 18 10 11 6 4 9 8 19 28 15 19 15 17 13 11 5 19
40 41 40 39 43 51 34 19 17 10 9 7 19 31 41 32 33 23 27 26 11 13 25 37 32 45 38 30 20 22 6 5 5 10 14 5 12 23 18 12 13 2 17 21
40 38 40 41 49 47 27 13 7 5 8 16 24 24 32 42 43 25 33 25 5 25 19 6 10 5 3 6 12 7 5 0 4 3 5 19 8 17 19 15 10 21 25 29
43 36 38 43 53 32 22 20 19 12 10 9 20 25 25 13 13 13 9 8 3 6 5 4 4 5 9 6 1 9 5 4 7 7 7 6 10 29 41 27 10 27 44 28
44 36 35 41 35 25 24 23 22 13 11 30 13 7 18 25 16 9 11 26 5 10 4 2 5 6 10 3 4 2 1 3 7 7 7 10 23 30 35 11 12 50 51 47
42 38 32 28 26 25 28 21 17 18 13 43 38 21 23 24 24 6 29 18 5 9 3 5 7 5 7 8 5 7 7 3 6 2 5 8 34 13 6 13 40 48 53 61
39 34 24 19 23 24 26 24 14 20 29 42 49 50 63 68 49 27 11 15 10 13 5 7 7 5 7 8 5 6 4 3 4 1 7 8 29 19 25 49 48 57 66 73
30 31 22 17 20 23 24 28 22 27 27 39 21 19 21 17 29 25 8 4 11 7 11 6 4 5 4 2 6 5 7 2 4 11 7 23 50 23 54 58 64 74 78 84
24 30 20 17 19 23 22 29 25 18 12 10 15 8 6 10 14 22 27 16 9 13 16 6 4 5 8 5 8 4 6 11 9 10 9 49 14 48 63 81 72 79 79 58
21 27 18 18 20 20 27 33 32 23 14 8 26 36 26 25 30 21 16 14 10 8 7 5 5 10 7 8 3 5 6 2 1 7 27 24 46 58 78 69 73 83 74 80
19 23 16 20 22 18 19 10 8 11 21 9 7 19 26 27 30 22 25 23 14 10 7 8 11 5 3 3 3 8 15 5 15 16 42 47 54 60 63 73 79 93 60 80
17 24 17 24 21 21 21 8 5 12 16 8 10 10 13 31 31 28 26 20 12 8 6 8 16 1 7 1 4 15 17 25 29 20 31 31 39 63 78 70 82 60 66 98
17 20 18 24 20 25 32 26 24 26 17 8 5 8 12 28 21 17 27 16 17 15 9 7 4 4 6 5 5 15 21 27 12 34 34 41 52 64 71 74 82 68 77 84
24 19 20 13 15 13 19 20 15 34 11 6 7 5 5 9 32 13 17 22 7 12 6 4 7 4 4 6 7 11 21 19 31 39 40 41 55 64 72 72 81 70 72 97
30 26 11 8 9 10 11 6 9 12 9 11 8 10 7 12 2 19 14 17 8 6 3 5 2 2 11 10 3 15 20 22 29 36 46 57 59 63 69 73 81 70 68 103
37 17 11 12 7 18 8 10 12 13 8 14 16 30 15 15 5 5 9 1 5 6 4 4 3 3 10 12 7 13 18 20 27 30 36 42 44 56 64 70 77 71 81 89
30 18 17 12 11 9 7 7 9 9 7 13 11 24 31 12 5 5 8 2 3 2 16 5 4 6 19 9 8 14 19 25 29 35 41 44 42 46 58 62 70 71 73 91
30 9 10 9 9 9 10 11 7 6 10 17 18 7 20 9 9 5 4 5 1 28 6 5 3 20 19 13 10 14 19 24 27 33 38 48 43 43 48 64 65 69 66 83
10 14 9 9 9 10 9 8 6 8 22 20 28 13 6 4 4 5 4 5 3 5 5 5 5 18 15 14 13 18 24 27 28 33 40 50 49 47 46 57 58 66 63 78
11 11 9 14 20 8 10 18 15 24 20 30 20 9 11 3 3 3 4 5 4 7 4 5 21 15 10 10 12 17 21 25 28 31 36 45 47 53 54 47 53 59 71 67
7 10 9 14 5 12 14 16 30 29 29 5 6 3 2 5 5 2 6 4 4 3 2 23 22 14 12 11 13 15 21 23 26 30 34 38 48 51 63 55 47 53 62 65
9 12 25 22 11 14 21 24 24 15 11 3 5 6 10 7 5 4 3 4 5 15 28 22 13 11 9 11 13 15 18 24 26 28 30 34 36 43 52 65 62 50 56 62
Wind_Direction_850mb
314 314 334 336 341 344 347 353 312 243 239 241 220 242 296 355 333 342 360 347 322 340 346 325 326 312 316 112 189 184 203 140 226 276 296 127 272 87 62 235 283 173 136 247
313 323 335 339 336 346 341 330 276 272 255 281 316 328 342 328 332 343 308 302 325 342 310 293 287 335 317 79 306 48 178 277 341 301 138 94 160 186 192 198 50 279 190 288
310 322 331 344 332 330 335 317 306 354 316 337 11 338 326 324 318 297 17 13 355 306 302 341 311 306 349 87 18 142 159 221 229 234 275 199 298 262 280 187 207 215 229 259
309 312 325 341 347 333 339 285 322 17 331 338 322 314 306 292 309 24 25 358 324 317 332 329 313 336 338 337 156 188 57 275 320 307 301 300 296 293 263 255 250 238 266 247
307 309 316 331 347 340 352 1 355 336 302 314 319 301 314 339 338 11 335 302 308 341 306 294 336 2 357 316 350 347 107 284 308 296 289 287 302 282 279 263 312 349 342 331
304 307 311 326 348 347 336 311 324 338 292 311 332 327 332 323 343 350 319 330 345 332 301 352 333 310 293 278 286 297 320 346 344 272 331 317 299 26 19 347 116 246 17 321
300 301 308 318 333 341 326 312 319 297 279 311 304 312 301 328 325 310 298 296 274 335 327 315 294 265 246 241 245 236 253 309 313 285 316 297 110 69 35 320 284 282 348 356
296 298 302 309 323 328 314 287 249 275 279 300 299 328 317 318 305 292 289 242 58 323 318 279 294 290 142 322 295 165 130 124 315 253 317 274 40 15 353 334 330 35 356 333
291 290 296 304 316 323 302 290 241 230 302 251 337 332 313 321 327 317 343 136 272 345 251 339 288 280 164 235 272 93 277 140 134 348 312 269 25 354 339 301 254 0 347 327
288 288 286 301 301 309 304 306 255 250 256 280 325 262 275 298 325 289 343 339 315 232 299 308 236 260 315 137 189 176 104 119 195 219 234 281 11 354 339 51 294 339 336 330
283 287 292 300 278 295 309 312 258 246 250 279 282 256 286 322 299 305 322 330 3 341 317 325 350 347 348 28 345 175 177 189 216 197 240 289 10 11 44 296 324 323 322 316
279 284 288 288 266 288 304 312 249 234 247 268 286 264 266 266 255 297 301 308 359 17 9 9 345 339 347 349 302 63 100 89 246 82 238 34 358 327 333 337 327 321 314 312
279 272 278 271 255 279 293 306 305 272 280 300 296 302 345 226 220 215 241 81 5 19 1 319 301 281 296 306 283 51 135 10 70 358 324 1 328 328 332 331 322 319 313 309
271 264 275 258 243 271 280 299 306 267 275 277 287 314 218 271 213 221 224 248 314 317 317 306 275 260 261 282 289 358 353 26 335 261 297 342 293 325 321 325 326 317 316 308
264 260 267 253 240 268 273 304 297 272 234 295 295 294 260 257 213 207 213 220 245 299 303 252 247 263 339 316 293 53 15 135 253 258 317 294 290 305 319 316 318 319 317 323
257 250 268 241 237 256 276 305 338 209 192 288 293 283 281 194 199 189 205 213 225 223 295 272 255 254 330 341 346 152 74 6 331 294 305 302 301 304 313 317 321 321 324 333
245 236 255 223 236 242 234 249 284 218 195 260 287 279 282 209 191 202 203 207 197 230 246 250 269 110 108 167 252 42 6 331 324 325 328 318 321 313 320 320 328 330 333 333
230 224 241 215 237 243 244 277 271 212 208 244 273 273 272 202 192 186 204 178 202 211 235 246 252 20 234 219 54 15 353 341 344 328 327 308 311 319 326 330 337 340 340 339
198 208 203 208 221 238 262 281 216 194 216 252 245 266 288 223 215 196 179 198 194 199 218 202 137 220 219 90 59 348 2 355 325 330 330 336 333 328 331 336 342 344 348 346
189 189 174 207 216 215 161 137 161 188 235 236 255 266 268 269 333 201 197 180 187 180 135 112 120 272 168 136 82 2 353 339 334 335 341 341 333 330 333 341 340 345 351 348
177 173 182 191 148 156 203 204 197 191 230 219 234 221 237 289 294 329 354 207 170 189 163 208 217 133 126 99 80 10 342 335 344 347 339 331 333 331 336 339 343 346 350 353
179 157 162 159 186 207 235 209 192 202 235 203 221 213 200 247 333 19 323 251 261 194 144 191 175 149 115 81 13 344 340 338 339 347 340 345 342 341 342 340 346 352 352 354
145 167 159 177 178 224 225 208 191 218 222 205 204 202 183 161 212 217 241 254 26 132 194 154 105 104 79 62 24 340 343 343 343 344 346 351 348 352 350 348 351 354 356 358
155 166 188 216 191 232 211 216 234 286 274 202 188 213 169 137 202 214 264 272 264 243 148 87 87 83 72 54 16 350 346 347 348 347 350 355 354 351 354 354 356 1 358 2
174 192 218 213 236 242 248 229 262 256 251 266 178 192 148 156 139 237 12 279 248 53 101 138 119 97 73 40 10 348 346 347 348 348 351 356 4 4 359 4 6 11 5 1
202 222 245 256 270 239 237 262 263 265 267 196 249 101 186 153 142 145 233 289 33 109 200 109 105 83 62 30 11 354 344 348 345 349 349 349 2 7 9 13 15 16 4 7
216 230 233 255 262 248 234 253 237 223 234 213 216 212 182 102 133 201 95 176 155 203 115 106 96 83 37 26 11 4 355 354 356 352 356 359 355 355 6 12 14 18 16 15